Location: Unspecified
(52.0000°N, 4.4000°E)
Time: 05:09:41
(UTC+00:00)

CZ-2C R/B - Pass Details

Date: 14 May 2025
Orbit: 631 x 693 km, 98.1° (Epoch: 14 June)

Event Time Altitude Azimuth Distance (km) Brightness Sun altitude
Rises 22:18:19 0° 18° (NNE) 2,950 7.9 -17.0°
Reaches altitude 10° 22:20:35 10° 23° (NNE) 2,032 6.9 -17.1°
Maximum altitude 22:24:54 53° 100° (E) 780 3.8 -17.3°
Enters shadow 22:26:27 35° 157° (SSE) 1,025 4.1 -17.4°
